Regional Weather Roundup
Issued by NWS Wakefield, VA

Home | Current Version | Previous Version | Text Only | Print | Product List | Glossary On
Versions: 1 2 3 4 5 6 7 8 9 10 11 12 13 14 15 16 17 18 19 20 21 22 23 24 25 26 27 28 29 30 31 32 33 34 35 36 37 38 39 40 41 42 43 44 45 46 47 48 49 50
000
ASUS41 KAKQ 150410
RWRAKQ

REGIONAL WEATHER ROUNDUP
NATIONAL WEATHER SERVICE WAKEFIELD VA
1200 AM EDT MON SEP 15 2014

Note: "fair" indicates few or no clouds below 12,000 feet with no
significant weather and/or obstructions to visibility. * = Denotes
station may not report precipitation (e.g., rain,snow,etc.),
thunder or fog.

VAZ042-051-052>054-056-150500-
NORTHERN VIRGINIA

CITY           SKY/WX    TMP DP  RH WIND       PRES   REMARKS
WASH NATIONAL  PTCLDY    63  52  67 CALM      30.23S
DULLES         PTCLDY    50  49  96 CALM      30.23S
FORT BELVOIR   CLEAR     54  52  95 NW1       30.23S
QUANTICO       CLEAR     57  54  89 NW7       30.23F
FREDERICKSBRG* CLOUDY    58  57  97 CALM      30.22S
STAFFORD*      PTCLDY    51  51 100 CALM      30.26F
WARRENTON        N/A     49  49 100 CALM      30.22F FOG
CULPEPER*      CLEAR    N/A N/A N/A CALM      30.23S
MANASSAS*      CLEAR     54  54 100 CALM      30.23S
LEESBURG*      CLEAR     52  52 100 CALM      30.24S
WINCHESTER     MOCLDY    52  50  93 CALM      30.23R
FRONT ROYAL*   CLEAR     52  50  93 S3        30.22R
LURAY*         CLEAR     52  52 100 CALM      30.23F
$$

VAZ048-049-060>072-079>083-150500-
CENTRAL AND SOUTH CENTRAL VIRGINIA...AND NORTH CENTRAL NORTH CAROLINA

CITY           SKY/WX    TMP DP  RH WIND       PRES   REMARKS
RICHMOND       MOCLDY    66  55  67 W5        30.22F
CHESTERFIELD*  CLOUDY   N/A N/A N/A CALM      30.24F
PETERSBURG*    CLOUDY    60  58  92 CALM      30.23F
HANOVER        MOCLDY    61  57  87 CALM      30.24S
TAPPAHANNOCK*  CLOUDY    60  57  89 CALM      30.23S
CHARLOTTSVILLE PTCLDY    57  55  93 CALM      30.23S
ORANGE*        PTCLDY    52  50  93 CALM      30.24S
LOUISA*        PTCLDY    55  54  94 CALM      30.22S
FARMVILLE*     CLOUDY    63  55  77 CALM      30.22F
CREWE*         CLOUDY    63  61  92 CALM      30.24S
FORT PICKETT*  CLOUDY    61  58  90 CALM      30.23S
LUNENBURG*     CLOUDY    61  59  92 CALM      30.23F
SOUTH HILL*    CLOUDY    63  63 100 CALM      30.28F
LAWRENCEVILLE* CLOUDY    60  59  97 CALM      30.22F
ROANOKE RAPIDS CLOUDY    59  59 100 CALM      30.22F
RALEIGH        LGT RAIN  64  58  80 NE3       30.24F
$$

VAZ088>098-150500-
SOUTHEAST VIRGINIA

CITY           SKY/WX    TMP DP  RH WIND       PRES   REMARKS
NORFOLK        PTCLDY    66  57  72 CALM      30.21F
VIRGINIA BEACH MOCLDY    65  57  75 W3        30.20F
NORFOLK NAVAL  MOCLDY    66  57  72 CALM      30.22F
WEST POINT*    NOT AVBL
NEWPORT NEWS   CLOUDY    67  59  75 W5        30.21F
LANGLEY AFB    CLEAR     62  61  99 W2        30.20F
FORT EUSTIS    CLOUDY    65  65 100 W3        30.20F
WILLIAMSBURG*  CLOUDY    66  63  88 CALM      30.22F
HR EXEC AP*    PTCLDY    61  57  88 CALM      30.23F
FRANKLIN*        N/A     61  61 100 CALM      30.22S
WAKEFIELD      CLEAR     61  58  90 CALM      30.22F
$$

VAZ020-022-025-037-045-150500-
WEST CENTRAL AND SOUTHWEST VIRGINIA

CITY           SKY/WX    TMP DP  RH WIND       PRES   REMARKS
STAUNTON*      CLEAR     52  49  89 SW3       30.25S
HOT SPRINGS VA NOT AVBL
LYNCHBURG      PTCLDY    57  56  96 SW3       30.25F
DANVILLE       CLOUDY    62  57  83 CALM      30.24F
SOUTH BOSTON*  NOT AVBL
MARTINSVILLE   CLOUDY    61  61 100 CALM      30.27S
ROANOKE        CLEAR     60  54  80 CALM      30.26F
BLACKSBURG     CLOUDY    59  59 100 CALM      30.28S
DUBLIN*        CLOUDY    61  61 100 CALM      30.27F
MARION*        CLOUDY    60  58  93 CALM      30.30S
HILLSVILLE*    CLEAR     55  55  98 S5        30.28S FOG
RICHLANDS*     FOG       62  61  94 CALM      30.26S VSB<1/4
WISE*          FOG       61  61 100 CALM      30.27S VSB 1/4
ABINGDON*      CLOUDY    62  61  95 CALM      30.25S
$$

MDZ021>025-VAZ099-100-150500-
SOUTHERN MARYLAND AND THE DELMARVA PENINSULA

CITY           SKY/WX    TMP DP  RH WIND       PRES   REMARKS
PATUXENT RIVER CLOUDY    59  55  87 W3        30.22S
BAY BRIDGE APT   N/A     57  50  77 CALM      30.22F
LEONARDTOWN    CLOUDY    55  54  94 CALM      30.24S
DOVER          CLEAR     55  53  92 W1        30.20S
GEORGETOWN     CLEAR     55  53  93 S6        30.22S
EASTON         CLEAR     56  55  97 CALM      30.26S
CAMBRIDGE      PTCLDY    55  54  94 CALM      30.22S
SALISBURY      PTCLDY    59  54  83 CALM      30.22S
OCEAN CITY     MOCLDY    57  54  89 CALM      30.21F
WALLOPS ISLAND MOCLDY    62  56  80 N3        30.21F
ACCOMACK*      PTCLDY    57  55  94 CALM      30.20F
$$

NCZ012>017-030>032-150500-
EASTERN NORTH CAROLINA

CITY           SKY/WX    TMP DP  RH WIND       PRES   REMARKS
ELIZABETH CITY MOCLDY    67  57  70 N9        30.21S
AHOSKIE*       CLEAR     60  58  95 CALM      30.23S
EDENTON*       PTCLDY    64  61  91 N3        30.21S
CURRITUCK*     MOCLDY    66  58  74 NW3       30.21F
KILL DEVIL HLS CLOUDY    68  57  67 N7        30.18F
MANTEO         CLOUDY    68  57  68 N9        30.19F
CAPE HATTERAS  CLOUDY    68  63  84 NE7       30.17F
TARBORO*       CLOUDY    62  60  93 CALM      30.23F
GOLDSBORO      MOCLDY    66  65  98 CALM      30.20S
WASHINGTON     CLOUDY    66  60  82 CALM      30.21S
GREENVILLE     CLEAR     63  63 100 N3        30.22F
NEW BERN       CLOUDY    69  61  75 NE5       30.21R
WILMINGTON     CLOUDY    70  67  90 N5        30.19S
$$

VAZ048-150500-
ELSEWHERE

CITY           SKY/WX    TMP DP  RH WIND       PRES   REMARKS
HARRISBURG PA  PTCLDY    53  49  86 CALM      30.22S
BALTIMORE      PTCLDY    53  50  89 CALM      30.22S
ANNAPOLIS      CLEAR     57  54  89 CALM      30.22S
ANDREWS AFB    CLEAR     54  54 100 CALM      30.22F FOG
WILMINGTON DE  CLEAR     54  51  90 W3        30.23R
PHILADELPHIA   CLEAR     58  48  69 W6        30.22R
WILDWOOD NJ*   CLEAR     54  48  82 CALM      30.22S
ATLANTIC CITY  CLEAR     53  51  93 CALM      30.21S
HENDERSON NC   CLOUDY    62  58  88 CALM      30.24S
GREENSBORO     CLOUDY    64  57  78 E3        30.24S
ROCKY MOUNT    CLOUDY    64  59  83 N6        30.22F
FAYETTEVILLE   CLOUDY    69  65  86 N6        30.22R
CHARLOTTE      CLOUDY    66  61  84 CALM      30.25R
$$

VAZ100-150500-
MARINE

STATION/POSITION TIME  TEMP    WIND        PRES    WAVE   SWELL
                       AIR SEA DIR/SP/G            HT/PER HT/PER
                 (UTC) (F)     (DEG/KT/KT) (MB)    (FT/S) (FT/S)
44066 TX TWR #4  0400   62 73  280/  4/  4 1022.2F   2/ 6   2/ 6
CAPE MAY NJ      0400   60 76  350/  2/  3 1022.3F
LEWES DE         0400   60 72  270/  5/  5 1022.7S
15NM E FENWICK I 0400   66 72              1022.6F   3/ 6
OCEAN-CITY-INLET 0400   63 72  310/  3/  4 1022.6F
WACHAPREAGUE VA  0400   62 74  330/  3/  4 1022.8F
THOMAS POINT MD  0400   65 75  300/  3/  5 1024.2F
GOOSES REEF MD   0400   67     220/  2/  4 1023.8S
COVE POINT MD    0400   65     140/  5/  6 1023.2F
SOLOMONS ISLAND  0400      76                N/A
BISHOPS HEAD MD  0400   65 72  360/  2/  3 1022.8S
PINEY POINT MD   0400          230/  7/  9   N/A
POTOMAC MD       0400   68      10/  2/  4 1022.6S
CAMBRIDGE MD     0400   59 75  200/  4/  5 1023.0F
LEWISETTA VA     0400   64 74  260/  4/  5 1022.9F
RAPPAHANNOCK LGT 0400           50/  5/  7 1023.3F
STINGRAY PT      0400   69      20/  2/  4   N/A
YORK RVR RNG VA  0400   68     330/  4/  5 1022.4F
YORKTOWN VA      0400   67 77  250/  6/  6 1022.7F
JAMESTOWN VA     0400   64     290/  6/  8   N/A
DOMINION TERM VA 0400   68      CALM  /  2 1023.1F
KIPTOPEKE VA     0400      79   40/  3/  4   N/A
CHES BAY BRIDGE  0400   68 76  360/  3/  4 1022.5F
CAPE HENRY VA    0400   68     350/  5/  6 1021.7S
CHESAPEAKE LGHT  0300   68      20/  6/  7 1023.7F
WILLOUBY STN VA  0400   68      10/  1/  2 1021.7F
S CRANEY ISL VA  0400           40/  1/  2 1022.7F
CAPE HENRY BUOY  0400      76                N/A     3/ 7
1ST LANDING BUOY 0400   69     350/  2/  4 1022.5S
CAPE CHARLES BUO 0400      76                N/A     3/ 7   2/ 7
OFFSHORE WE BUOY 0400      75                N/A     4/ 7   3/ 7
64NM E OF VA BCH 0400   70 79  360/ 10/ 12 1021.6F   3/ 7   3/ 7
DUCK PIER NC     0400   70 76  360/ 11/ 13 1021.7F
44100 DUCK FRF   0400      75                N/A     3/ 7
44056 DUCK FRF   0400                        N/A     3/ 7
OREGON INLET NC  0400   70 76   20/  8/ 13 1021.9S
HATTERAS NC      0400   72 79   30/  8/ 12 1022.0F
DIAMOND SHLS NC  0400   73     360/ 14/ 17 1021.0F   4/ 8   2/ 8
CAPE LOOKOUT NC  0300   71      20/  9/ 12 1021.9F
$$



USA.gov is the U.S. government's official web portal to all federal, state and local government web resources and services.